www.pogodaiklimat.ru

Погода и климат >> Архив погоды >> Индонезия >> Jayapura


ПОГОДА в Jayapura

  • Прогноз погоды в Jayapura
  • Монитор погоды в Jayapura
  • Климат города

АРХИВ ПОГОДЫ в Jayapura

Время (UTC), дата Ветер
(напр.,м/с)
 
Видим.   Явления Облачность Т
(С)
Тd
(С)
f
(%)
Тe
(С)
Тes
(С)
Комфортность P
(гПа)
Po
(гПа)
Тmin
(С)
Tmax
(С)
R
(мм)
R24
(мм)
S
(см)
21 10.10 штиль 0 7000 м мгла 5/3 360 м
[Cb cap Ac trans Ci fib]
+26.0 +24.4 91 +36 +37 очень
душно
1010.8 1010.5
00 11.10 ЮВ 2 8000 м 8/4 450 м
[Cu hum Ac trans Ci fib]
+29.6 +25.0 76 +42 +48 опасность
перегрева
1012.5 1012.2 +26.0 2
03 11.10 В 4 8000 м 8/5 360 м
[Cb cap Ac trans Ci fib]
+30.6 +26.1 77 +46 +51 опасность
перегрева
1010.2 1009.8
06 11.10 В 2 9000 м осадки на расстоянии 6/4 400 м
[Cb cap Ac trans Ci ing]
+30.2 +26.2 79 +46 +50 опасность
перегрева
1008.2 1007.8
09 11.10 СВ 2 9000 м гроза без осадков 9/5 400 м
[Cb cap Ac As Ci sp]
+29.2 +26.0 83 +44 +44 опасность
перегрева
1009.6 1009.2
12 11.10 З 3 8000 м осадки на расстоянии 6/4 400 м
[Cb cap Ac As Ci sp]
+28.2 +25.5 85 +41 +41 опасность
перегрева
1011.6 1011.2 +31.2
21 11.10 СЗ 2 6000 м мгла 5/1 420 м
[Cu med, cong Ac trans Ci sp]
+27.2 +25.3 89 +39 +40 очень
душно
1010.6 1010.2
00 12.10 Ю 2 7000 м мгла 6/3 420 м
[Cu med, cong Ci sp]
+30.2 +25.9 78 +45 +54 опасность
перегрева
1011.7 1011.4 +27.0
03 12.10 В 5 8000 м 6/3 400 м
[Cb cap Ci sp]
+31.0 +26.5 77 +47 +55 опасность
перегрева
1009.4 1009.0
06 12.10 В 5 8000 м 8/6 360 м
[Cb cap Ac As Ci sp]
+30.4 +27.0 82 +48 +49 опасность
перегрева
1008.2 1007.8
09 12.10 В 3 7000 м 8/6 360 м
[Cb cap Ci sp]
+29.5 +26.2 82 +45 +45 опасность
перегрева
1008.7 1008.4
12 12.10 штиль 0 7000 м 8/4 420 м
[Cu hum Ci sp]
+28.8 +27.0 90 +45 +45 опасность
перегрева
1010.8 1010.4 +31.4
21 12.10 З 3 6000 м мгла {дождь} 6/1 420 м
[Cu hum Ac trans Ci sp]
+26.0 +24.9 94 +37 +37 очень
душно
1010.4 1010.1 2
00 13.10 ЮВ 5 7000 м мгла 6/1 420 м
[Cu med, cong Ci sp]
+30.0 +25.4 76 +44 +50 опасность
перегрева
1011.6 1011.2 +26.0 2
03 13.10 В 3 8000 м мгла 6/1 420 м
[Cu med, cong Ci sp]
+30.2 +25.0 74 +44 +58 опасность
перегрева
1009.4 1009.1
06 13.10 В 3 9000 м осадки на расстоянии 5/3 400 м
[Cb cap Ci ing]
+31.4 +25.8 72 +46 +51 опасность
перегрева
1007.3 1007.0
09 13.10 В 4 10 км 4/1 450 м
[Cu med, cong Ci sp]
+29.8 +25.8 79 +44 +44 опасность
перегрева
1008.7 1008.3
12 13.10 З 2 10 км 4/3 420 м
[Cu hum Ci sp]
+28.2 +24.4 80 +40 +40 очень
душно
1010.4 1010.0 +32.0
21 13.10 З 2 9000 м 5/5 400 м
[Cu Sc Ci fib]
+26.8 +24.9 89 +38 +38 очень
душно
1010.2 1009.8
00 14.10 В 2 10 км 6/5 450 м
[Cu hum Ac trans Ci fib]
+30.0 +26.4 81 +46 +52 опасность
перегрева
1012.1 1007.3 +26.8
03 14.10 В 5 9000 м осадки на расстоянии 6/5 360 м
[Cb cap Ac trans Ci ing]
+31.4 +25.1 69 +45 +51 опасность
перегрева
1009.2 1008.9
06 14.10 В 4 9000 м осадки на расстоянии 6/5 400 м
[Cb cap Ac cuf Ci ing]
+30.6 +26.4 78 +47 +49 опасность
перегрева
1007.9 1007.5
09 14.10 штиль 0 9000 м осадки на расстоянии 6/4 400 м
[Cb cap Ac trans Ci sp]
+29.4 +25.9 81 +44 +44 опасность
перегрева
1009.1 1008.7
12 14.10 З 3 9000 м 5/3 420 м
[Cu med, cong Ci fib]
+28.4 +24.6 80 +40 +40 очень
душно
1010.5 1010.1 +31.6
21 14.10 З 2 6000 м мгла 8/1 420 м
[Cu med, cong Ac trans Ci sp]
+27.0 +24.3 85 +38 +38 очень
душно
1010.6 1010.3
00 15.10 ЮВ 3 7000 м мгла 8/3 420 м
[Cu med, cong Ac As Ci sp]
+29.6 +25.3 78 +43 +49 опасность
перегрева
1012.0 1011.7 +26.8
03 15.10 В 6 8000 м мгла 6/3 420 м
[Cu med, cong Ci sp]
+31.2 +25.0 70 +45 +50 опасность
перегрева
1009.2 1008.8
06 15.10 СВ 6 8000 м 6/5 360 м
[Cb cap Ci sp]
+31.2 +25.3 71 +45 +47 опасность
перегрева
1007.9 1007.5
09 15.10 ЮЗ 2 7000 м 8/6 360 м
[Cb cap Ac As Ci sp]
+30.0 +24.7 73 +43 +43 опасность
перегрева
1009.2 1008.8
12 15.10 З 2 5000 м в посл. час дождь {гроза} 10/6 330 м
[Cb cap As op]
+26.9 +25.1 90 +39 +39 очень
душно
1012.1 1011.7 +32.0 8
21 15.10 штиль 0 5000 м слабый дождь 10/4 400 м
[Cb cap Ac As]
+25.0 +24.5 97 +35 +35 очень
душно
1012.0 1011.7 19
00 16.10 З 2 6000 м слабый дождь 10/4 300 м
[Cb cap As op]
+26.2 +24.6 91 +37 +39 очень
душно
1013.8 1013.5 +25.0 3
03 16.10 ЮЗ 6 7000 м слабый дождь 10/4 400 м
[Cb cap As op]
+27.8 +24.8 84 +40 +41 очень
душно
1010.1 1009.7 0.9
06 16.10 ЮВ 3 7000 м осадки на расстоянии {гроза, дождь} 9/4 400 м
[Cb cap Ac As Ci sp]
+28.6 +25.7 84 +42 +45 опасность
перегрева
1007.0 1006.7 0.1
09 16.10 В 4 9000 м 5/3 450 м
[Cu med, cong Ac trans Ci sp]
+28.0 +25.9 88 +42 +42 опасность
перегрева
1008.5 1008.1
12 16.10 штиль 0 9000 м зарница 8/4 420 м
[Cb cap Ac trans Ci sp]
+27.4 +25.5 89 +40 +40 очень
душно
1011.2 1010.9 +29.2
21 16.10 З 2 7000 м {дождь} 6/3 420 м
[Cu med, cong Ci fib]
+24.5 +23.3 93 +33 +33 очень
душно
1010.1 1009.7 5
00 17.10 ЮВ 4 8000 м {дождь} 6/4 450 м
[Cu hum Ci fib]
+29.0 +25.4 81 +43 +48 опасность
перегрева
1011.2 1010.8 +24.0 6
03 17.10 СВ 5 10 км 6/6 330 м
[Cb cap Ci sp]
+31.6 +25.7 71 +47 +52 опасность
перегрева
1008.9 1008.5
06 17.10 В 5 9000 м осадки на расстоянии 5/4 400 м
[Cb cap Ac cuf Ci ing]
+31.0 +26.0 75 +46 +49 опасность
перегрева
1007.0 1006.6
09 17.10 С 2 8000 м осадки на расстоянии 6/4 400 м
[Cb cap Ac As Ci sp]
+29.0 +24.7 78 +41 +41 опасность
перегрева
1008.8 1008.5
12 17.10 З 2 9000 м зарница 6/4 400 м
[Cb cap Ac cuf Ci sp]
+28.0 +24.5 81 +39 +39 очень
душно
1011.3 1010.9 +32.4

 

Местоположение метеостанции Jayapura (Индонезия): широта -2.59 долгота 140.71 высота над уровнем моря 3 м.

В архиве по умолчанию представлена погода в Jayapura за последнюю неделю. Архивные данные за месяц целиком и за предыдущие месяцы, начиная с января 2011 года, Вы можете получить, выбрав интересующий диапазон дат из раскрывающегося списка и нажав кнопку "Ввод!".


*Определитесь, кто Вы:
робот инопланетянин человек

Внимание! Время в таблицах - всемирное. Для получения местного времени необходимо прибавить поправку, которая в Jayapura равна 9 ч.

Смотрите также архив погоды в соседних городах и на ближайших метеорологических станциях:

Погода в Sentani Airport (Индонезия) (21 км)
Погода в Sarmi (Индонезия) (238 км)
Погода в Wamena (Индонезия) (256 км)
Погода в Tanah Merah (Индонезия) (393 км)
Погода в Kokonao (Индонезия) (450 км)
Погода в Enarotali (Индонезия) (504 км)
Погода в Serui (Индонезия) (504 км)
Погода в Biak (Индонезия) (535 км)
Погода в Nabire (Индонезия) (585 км)
Погода в Merauke (Индонезия) (655 км)

Пояснения к столбцам:

Ветер - указаны скорость ветра в м/с - средняя за 10 мин, порывы в срок и между сроками (в фигурных скобках) и направление, откуда дует ветер: С - северный, СВ - северо-восточный, В - восточный, ЮВ - юго-восточный, Ю - южный, ЮЗ - юго-западный, З - западный, СЗ - северо-западный.
Видимость - горизонтальная дальность видимости в метрах или километрах. При видимости от 1 до 10 км при отсутствии осадков обычно наблюдается дымка, при ухудшении видимости до 1 км и менее - туман. В сухую погоду видимость может ухудшаться дымом, пылью или мглою.
Явления - указаны атмосферные явления, наблюдавшиеся в срок или в последний час перед сроком; фигурными скобками обозначены явления, наблюдавшиеся между сроками (за 1-3 часа до срока); квадратными скобками обозначены град или гололедные отложения с указанием их диаметра в мм.
Облачность - указаны через наклонную черту общая и нижняя облачность в баллах и высота нижней границы облаков в метрах; квадратными скобками обозначены формы облаков: Ci - перистые, Cs - перисто-слоистые, Cc - перисто-кучевые, Ac - высококучевые, As - высокослоистые, Sc - слоисто-кучевые, Ns - слоисто-дождевые, Cu - кучевые, Cb - кучево-дождевые. Подробнее классификацию облаков см. в Атласе облаков (PDF).
T - Температура воздуха - температура, измеренная на высоте 2 м над землей.
Td - Температура точки росы - температура, при понижении до которой содержащийся в воздухе водяной пар достигнет насыщения.
f - Относительная влажность воздуха - влажноcть воздуха, измеренная на высоте 2 м над землей.
Te - Эффективная температура - температура, которую ощущает одетый по сезону человек в тени. Характеристика душности погоды. При расчете учитывается влияние влажности воздуха и скорости ветра на теплоощущения человека.
Tes - Эффективная температура на солнце - температура, которую ощущает человек, с поправкой на солнечный нагрев. Характеристика знойности погоды. Зависит от высоты солнца над горизонтом, облачности и скорости ветра. Ночью, в пасмурную погоду, а также при ветре 12 м/с и более поправка равна нулю.
P - Атмосферное давление - приведенное к уровню моря атмосферное давление.
Po - Атмосферное давление - измеренное на уровне метеостанции атмосферное давление.
Tmin - Минимальная температура - минимум температуры воздуха на высоте 2 м над землей.
Tmax - Максимальная температура - максимум температуры воздуха на высоте 2 м над землей.
R - Количество осадков - Количество выпавших осадков за период времени, мм. При наведении курсора мыши на число - период времени, за который выпало указанное количество осадков.
R24 - Количество осадков - Количество выпавших осадков за 24 часа, мм.
S - Снежный покров - Высота снежного покрова, см. При наведении курсора мыши на число - состояние снежного покрова и степень покрытия местности в баллах.